Location: 22
(39.7117°N, 89.5929°W)
Time: 01:22:37
(UTC-05:00)

A-11 Canister half - Pass Details

Date: 12 June 2023
Orbit: 1524 x 1684 km, 47.3° (Epoch: 29 September)

Event Time Altitude Azimuth Distance (km) Brightness Sun altitude
Rises 03:28:32 0° 296° (WNW) 4,709 11.5 -18.0°
Reaches altitude 10° 03:31:59 10° 287° (WNW) 3,741 10.8 -17.6°
Maximum altitude 03:39:55 31° 229° (SW) 2,488 9.5 -16.7°
Drops below altitude 10° 03:48:05 10° 172° (S) 3,834 10.7 -15.7°
Sets 03:51:41 0° 162° (SSE) 4,842 11.3 -15.3°
